Location: Cajon Junction
(34.3117°N, 117.4748°W)
Time: 05:24:50
(UTC+00:00)

Cosmos 1655 Rocket - Pass Details

Date: 18 April 2024
Orbit: 971 x 1004 km, 83.0° (Epoch: 28 May)

Event Time Altitude Azimuth Distance (km) Brightness Sun altitude
Exits shadow 12:16:31 - 198° (SSW) 3,632 6.6 -12.1°
Reaches altitude 10° 12:19:02 10° 203° (SSW) 2,706 5.9 -11.7°
Maximum altitude 12:25:03 53° 279° (W) 1,180 4.2 -10.5°
Drops below altitude 10° 12:31:08 10° 356° (N) 2,725 6.6 -9.3°
Sets 12:33:44 0° 1° (N) 3,679 7.3 -8.8°
